Tracking 19796 objects as of 19-Jul-2019
HD Live streaming from Space Station
objects crossing your sky now

OICETS

Track OICETS now!
10-day predictions
OICETS is classified as:


NORAD ID: 28809
Int'l Code: 2005-031A
Perigee: 565.1 km
Apogee: 582.3 km
Inclination: 97.9 °
Period: 96.0 minutes
Semi major axis: 6944 km
RCS: 1.711 m2 (large)
Launch date: August 23, 2005
Source: Japan (JPN)
Launch site: TYURATAM MISSILE AND SPACE COMPLEX (TTMTR)

Study inter-satellite communications.
aabbcc
Your satellite tracking list
Your tracking list is empty




NASA's NSSDC Master Catalog

Two Line Element Set (TLE):
1 28809U 05031A   19200.32717479 -.00000232  00000-0 -13511-4 0  9992
2 28809  97.9404 298.6393 0012355 319.1425  40.8871 15.00116863758383
Source of the keplerian elements: AFSPC